{"data":{"norad_id":27168,"epoch":"2026-09-18T00:00:53.696736Z","epoch_age_seconds":228109,"freshness":"STALE","line1":"1 27168U 02001A   26261.00062149  .00000096  00000+0  00000+0 0  9999","line2":"2 27168  11.2914  21.3209 0098317  10.2834 344.4884  1.00270546 33889","mean_motion":1.00270546,"eccentricity":0.0098317,"inclination_deg":11.2914,"raan_deg":21.3209,"arg_perigee_deg":10.2834,"mean_anomaly_deg":344.4884,"bstar":0,"rev_number":3388,"period_min":1436.114649261,"perigee_km":35372.387891276,"apogee_km":36201.496711612,"semimajor_km":42165.079301444,"source":"CELESTRAK","updated_at":"2026-09-20T09:00:35.119332Z"}}